START_TIME,STEP,MOV.,M6,t_acc.,M7,t_acc.,M19,t_acc.,H36,t_acc.
1981-08-26 00:00:28.020 ,7,0,0.,12.0,0.,12.0,0.,12.0,0.,12.0
1981-08-26 00:00:40.020 ,7,0,0.,12.0,0.,12.0,0.,12.0,0.,12.0
1981-08-26 00:00:52.020 ,6,1,0.,12.0,0.,12.0,0.,12.0,0.,12.0
1981-08-26 00:01:04.020 ,6,1,0.,12.0,0.,12.0,0.,12.0,0.,12.0
1981-08-26 00:01:16.020 ,6,0,0.,12.0,0.,12.0,0.,12.0,0.,12.0
1981-08-26 00:01:28.020 ,6,0,0.,12.0,0.,12.0,0.,12.0,0.,12.0
1981-08-26 00:01:40.020 ,5,1,0.,12.0,0.,12.0,0.,12.0,0.,12.0
1981-08-26 00:01:52.020 ,5,1,0.,12.0,0.,12.0,0.,12.0,0.,12.0
1981-08-26 00:02:04.020 ,5,0,0.,12.0,0.,12.0,0.,12.0,0.,12.0
1981-08-26 00:02:16.020 ,5,0,0.,12.0,0.,12.0,0.,12.0,0.,12.0
1981-08-26 00:02:28.020 ,4,1,0.,12.0,0.,12.0,0.,12.0,0.,12.0
1981-08-26 00:02:40.020 ,4,1,0.,12.0,0.,12.0,0.,12.0,0.,12.0
1981-08-26 00:02:52.020 ,4,0,0.,12.0,0.,12.0,0.,12.0,0.,12.0
1981-08-26 00:03:04.020 ,4,0,0.,12.0,0.,12.0,0.,12.0,0.,12.0
1981-08-26 00:03:16.020 ,3,1,0.,12.0,0.,12.0,0.,12.0,0.,12.0
1981-08-26 00:03:28.020 ,3,1,0.,12.0,0.,12.0,0.,12.0,0.,12.0
1981-08-26 00:03:40.020 ,3,0,0.,12.0,0.,12.0,0.,12.0,0.,12.0
1981-08-26 00:03:52.020 ,3,0,0.,12.0,0.,12.0,0.,12.0,0.,12.0
1981-08-26 00:04:04.020 ,0,0,0.,12.0,0.,12.0,0.,12.0,0.,12.0
1981-08-26 00:04:16.020 ,0,0,0.,12.0,0.,12.0,0.,12.0,0.,12.0
1981-08-26 00:04:28.020 ,0,0,0.,12.0,0.,12.0,0.,12.0,0.,12.0
1981-08-26 00:04:40.020 ,0,0,0.,12.0,0.,12.0,0.,12.0,0.,12.0
1981-08-26 00:04:52.020 ,1,1,0.,12.0,0.,12.0,0.,12.0,0.,12.0
1981-08-26 00:05:04.020 ,1,1,0.,12.0,0.,12.0,0.,12.0,0.,12.0
1981-08-26 00:05:16.020 ,1,0,0.,12.0,0.,12.0,0.,12.0,0.,12.0
1981-08-26 00:05:28.020 ,1,0,0.,12.0,0.,12.0,0.,12.0,0.,12.0
1981-08-26 00:05:40.020 ,0,1,0.,12.0,0.,12.0,0.,12.0,0.,12.0
1981-08-26 00:05:52.020 ,0,1,0.,12.0,0.,12.0,0.,12.0,0.,12.0
1981-08-26 00:06:04.020 ,0,0,0.,12.0,0.,12.0,0.,12.0,0.,12.0
1981-08-26 00:06:16.020 ,0,0,0.,12.0,0.,12.0,0.,12.0,0.,12.0
1981-08-26 00:06:28.020 ,0,1,0.,12.0,0.,12.0,0.,12.0,0.,12.0
1981-08-26 00:06:40.020 ,0,1,0.,12.0,0.,12.0,0.,12.0,0.,12.0
1981-08-26 00:06:52.020 ,0,0,0.,12.0,0.,12.0,0.,12.0,0.,12.0
1981-08-26 00:07:04.020 ,0,0,0.,12.0,0.,12.0,0.,12.0,0.,12.0
1981-08-26 00:07:16.020 ,1,1,0.,12.0,0.,12.0,0.,12.0,0.,12.0
1981-08-26 00:07:28.020 ,1,1,0.,12.0,0.,12.0,0.,12.0,0.,12.0
1981-08-26 00:07:40.020 ,1,0,0.,12.0,0.,12.0,0.,12.0,0.,12.0
1981-08-26 00:07:52.020 ,1,0,0.,12.0,0.,12.0,0.,12.0,0.,12.0
1981-08-26 00:08:04.020 ,2,1,0.,12.0,0.,12.0,0.,12.0,0.,12.0
1981-08-26 00:08:16.020 ,2,1,0.,12.0,0.,12.0,0.,12.0,0.,12.0
1981-08-26 00:08:28.020 ,2,0,1.,12.0,0.,12.0,0.,12.0,0.,12.0
1981-08-26 00:08:40.020 ,2,0,0.,12.0,0.,12.0,0.,12.0,0.,12.0
1981-08-26 00:08:52.020 ,3,1,0.,12.0,0.,12.0,0.,12.0,0.,12.0
1981-08-26 00:09:04.020 ,3,1,0.,12.0,0.,12.0,0.,12.0,0.,12.0
1981-08-26 00:09:16.020 ,3,0,0.,12.0,0.,12.0,0.,12.0,0.,12.0
1981-08-26 00:09:28.020 ,3,0,0.,12.0,0.,12.0,0.,12.0,0.,12.0
1981-08-26 00:09:40.020 ,4,1,0.,12.0,0.,12.0,0.,12.0,0.,12.0
1981-08-26 00:09:52.020 ,4,1,0.,12.0,0.,12.0,0.,12.0,0.,12.0
1981-08-26 00:10:04.020 ,4,0,0.,12.0,0.,12.0,0.,12.0,0.,12.0
1981-08-26 00:10:16.020 ,4,0,0.,12.0,0.,12.0,0.,12.0,0.,12.0
1981-08-26 00:10:28.020 ,5,1,0.,12.0,0.,12.0,0.,12.0,0.,12.0
1981-08-26 00:10:40.020 ,5,1,0.,12.0,0.,12.0,0.,12.0,0.,12.0
1981-08-26 00:10:52.020 ,5,0,0.,12.0,0.,12.0,0.,12.0,0.,12.0
1981-08-26 00:11:04.020 ,5,0,0.,12.0,0.,12.0,0.,12.0,0.,12.0
1981-08-26 00:11:16.020 ,6,1,0.,12.0,0.,12.0,0.,12.0,0.,12.0
1981-08-26 00:11:28.020 ,6,1,0.,12.0,0.,12.0,0.,12.0,0.,12.0
1981-08-26 00:11:40.020 ,6,0,0.,12.0,0.,12.0,0.,12.0,0.,12.0
1981-08-26 00:11:52.020 ,6,0,0.,12.0,0.,12.0,0.,12.0,0.,12.0
1981-08-26 00:12:04.020 ,7,1,0.,12.0,0.,12.0,0.,12.0,0.,12.0
1981-08-26 00:12:16.020 ,7,1,0.,12.0,0.,12.0,0.,12.0,0.,12.0
1981-08-26 00:12:28.020 ,7,0,0.,12.0,0.,12.0,0.,12.0,0.,12.0
1981-08-26 00:12:40.020 ,7,0,0.,12.0,0.,12.0,0.,12.0,0.,12.0
1981-08-26 00:12:52.020 ,7,1,0.,12.0,0.,12.0,0.,12.0,0.,12.0
1981-08-26 00:13:04.020 ,7,1,0.,12.0,0.,12.0,0.,12.0,0.,12.0
1981-08-26 00:13:16.020 ,7,0,0.,12.0,0.,12.0,0.,12.0,0.,12.0
1981-08-26 00:13:28.020 ,7,0,0.,12.0,0.,12.0,0.,12.0,0.,12.0
1981-08-26 00:13:40.020 ,6,1,0.,12.0,0.,12.0,0.,12.0,0.,12.0
1981-08-26 00:13:52.020 ,6,1,0.,12.0,0.,12.0,0.,12.0,0.,12.0
1981-08-26 00:14:04.020 ,6,0,0.,12.0,0.,12.0,0.,12.0,0.,12.0
1981-08-26 00:14:16.020 ,6,0,0.,12.0,0.,12.0,0.,12.0,0.,12.0
1981-08-26 00:14:28.020 ,5,1,0.,12.0,0.,12.0,0.,12.0,0.,12.0
1981-08-26 00:14:40.020 ,5,1,0.,12.0,0.,12.0,0.,12.0,0.,12.0
1981-08-26 00:14:52.020 ,5,0,0.,12.0,0.,12.0,0.,12.0,0.,12.0
1981-08-26 00:15:04.020 ,5,0,0.,12.0,0.,12.0,0.,12.0,0.,12.0
1981-08-26 00:15:16.020 ,4,1,0.,12.0,0.,12.0,0.,12.0,0.,12.0
1981-08-26 00:15:28.020 ,4,1,0.,12.0,0.,12.0,0.,12.0,0.,12.0
1981-08-26 00:15:40.020 ,4,0,0.,12.0,0.,12.0,0.,12.0,0.,12.0
1981-08-26 00:15:52.020 ,4,0,0.,12.0,0.,12.0,0.,12.0,0.,12.0
1981-08-26 00:16:04.020 ,3,1,0.,12.0,0.,12.0,0.,12.0,0.,12.0
1981-08-26 00:16:16.020 ,3,1,0.,12.0,0.,12.0,0.,12.0,0.,12.0
1981-08-26 00:16:28.020 ,3,0,0.,12.0,0.,12.0,0.,12.0,0.,12.0
1981-08-26 00:16:40.020 ,3,0,0.,12.0,0.,12.0,0.,12.0,0.,12.0
1981-08-26 00:16:52.020 ,2,1,0.,12.0,0.,12.0,0.,12.0,0.,12.0
1981-08-26 00:17:04.020 ,2,1,0.,12.0,0.,12.0,0.,12.0,0.,12.0
1981-08-26 00:17:16.020 ,2,0,0.,12.0,0.,12.0,0.,12.0,0.,12.0
1981-08-26 00:17:28.020 ,2,0,0.,12.0,0.,12.0,0.,12.0,0.,12.0
1981-08-26 00:17:40.020 ,1,1,0.,12.0,0.,12.0,0.,12.0,0.,12.0
1981-08-26 00:17:52.020 ,1,1,0.,12.0,0.,12.0,0.,12.0,0.,12.0
1981-08-26 00:18:04.020 ,1,0,0.,12.0,0.,12.0,0.,12.0,0.,12.0
1981-08-26 00:18:16.020 ,1,0,0.,12.0,0.,12.0,0.,12.0,0.,12.0
1981-08-26 00:18:28.020 ,0,1,0.,12.0,0.,12.0,0.,12.0,0.,12.0
1981-08-26 00:18:40.020 ,0,1,0.,12.0,0.,12.0,0.,12.0,0.,12.0
1981-08-26 00:18:52.020 ,0,0,0.,12.0,0.,12.0,0.,12.0,0.,12.0
1981-08-26 00:19:04.020 ,0,0,0.,12.0,0.,12.0,0.,12.0,0.,12.0
1981-08-26 00:19:16.020 ,0,1,0.,12.0,0.,12.0,0.,12.0,0.,12.0
1981-08-26 00:19:28.020 ,0,1,0.,12.0,0.,12.0,0.,12.0,0.,12.0
1981-08-26 00:19:40.020 ,0,0,0.,12.0,0.,12.0,0.,12.0,0.,12.0
1981-08-26 00:19:52.020 ,0,0,0.,12.0,0.,12.0,0.,12.0,0.,12.0
1981-08-26 00:20:04.020 ,1,1,0.,12.0,0.,12.0,0.,12.0,0.,12.0
1981-08-26 00:20:16.020 ,1,1,0.,12.0,0.,12.0,0.,12.0,0.,12.0
1981-08-26 00:20:28.020 ,1,0,0.,12.0,0.,12.0,0.,12.0,0.,12.0
1981-08-26 00:20:40.020 ,1,0,0.,12.0,0.,12.0,0.,12.0,0.,12.0
1981-08-26 00:20:52.020 ,2,1,0.,12.0,0.,12.0,0.,12.0,0.,12.0
1981-08-26 00:21:04.020 ,2,1,0.,12.0,0.,12.0,0.,12.0,0.,12.0
1981-08-26 00:21:16.020 ,2,0,0.,12.0,0.,12.0,0.,12.0,0.,12.0
1981-08-26 00:21:28.020 ,2,0,0.,12.0,0.,12.0,0.,12.0,0.,12.0
1981-08-26 00:21:40.020 ,3,1,0.,12.0,0.,12.0,0.,12.0,0.,12.0
1981-08-26 00:21:52.020 ,3,1,0.,12.0,0.,12.0,0.,12.0,0.,12.0
1981-08-26 00:22:04.020 ,3,0,0.,12.0,0.,12.0,0.,12.0,0.,12.0
1981-08-26 00:22:16.020 ,3,0,0.,12.0,0.,12.0,0.,12.0,0.,12.0
1981-08-26 00:22:28.020 ,4,1,0.,12.0,0.,12.0,0.,12.0,0.,12.0
1981-08-26 00:22:40.020 ,4,1,0.,12.0,0.,12.0,0.,12.0,0.,12.0
1981-08-26 00:22:52.020 ,4,0,0.,12.0,0.,12.0,0.,12.0,0.,12.0
1981-08-26 00:23:04.020 ,4,0,0.,12.0,0.,12.0,0.,12.0,0.,12.0
1981-08-26 00:23:16.020 ,5,1,0.,12.0,0.,12.0,0.,12.0,0.,12.0
1981-08-26 00:23:28.020 ,5,1,0.,12.0,0.,12.0,0.,12.0,0.,12.0
1981-08-26 00:23:40.020 ,5,0,0.,12.0,0.,12.0,0.,12.0,0.,12.0
1981-08-26 00:23:52.020 ,5,0,0.,12.0,0.,12.0,0.,12.0,0.,12.0
1981-08-26 00:24:04.020 ,6,1,0.,12.0,0.,12.0,0.,12.0,0.,12.0
1981-08-26 00:24:16.020 ,6,1,0.,12.0,0.,12.0,0.,12.0,0.,12.0
1981-08-26 00:24:28.020 ,6,0,0.,12.0,0.,12.0,0.,12.0,0.,12.0
1981-08-26 00:24:40.020 ,6,0,0.,12.0,0.,12.0,0.,12.0,0.,12.0
1981-08-26 00:24:52.020 ,7,1,0.,12.0,0.,12.0,0.,12.0,0.,12.0
1981-08-26 00:25:04.020 ,7,1,0.,12.0,0.,12.0,0.,12.0,0.,12.0
1981-08-26 00:25:16.020 ,7,0,0.,12.0,0.,12.0,0.,12.0,0.,12.0
1981-08-26 00:25:28.020 ,7,0,0.,12.0,0.,12.0,0.,12.0,0.,12.0
1981-08-26 00:25:40.020 ,7,1,0.,12.0,0.,12.0,0.,12.0,0.,12.0
1981-08-26 00:25:52.020 ,7,1,0.,12.0,0.,12.0,0.,12.0,0.,12.0
1981-08-26 00:26:04.020 ,7,0,0.,12.0,0.,12.0,0.,12.0,0.,12.0
1981-08-26 00:26:16.020 ,7,0,0.,12.0,0.,12.0,0.,12.0,0.,12.0
1981-08-26 00:26:28.020 ,6,1,0.,12.0,0.,12.0,0.,12.0,0.,12.0
1981-08-26 00:26:40.020 ,6,1,0.,12.0,0.,12.0,0.,12.0,0.,12.0
1981-08-26 00:26:52.020 ,6,0,0.,12.0,0.,12.0,0.,12.0,0.,12.0
1981-08-26 00:27:04.020 ,6,0,0.,12.0,0.,12.0,0.,12.0,0.,12.0
1981-08-26 00:27:16.020 ,5,1,0.,12.0,0.,12.0,0.,12.0,0.,12.0
1981-08-26 00:27:28.020 ,5,1,0.,12.0,0.,12.0,0.,12.0,0.,12.0
1981-08-26 00:27:40.020 ,5,0,0.,12.0,0.,12.0,0.,12.0,0.,12.0
1981-08-26 00:27:52.020 ,5,0,0.,12.0,0.,12.0,0.,12.0,0.,12.0
1981-08-26 00:28:04.020 ,4,1,0.,12.0,0.,12.0,0.,12.0,0.,12.0
1981-08-26 00:28:16.020 ,4,1,0.,12.0,0.,12.0,0.,12.0,0.,12.0
1981-08-26 00:28:28.020 ,4,0,0.,12.0,0.,12.0,0.,12.0,0.,12.0
1981-08-26 00:28:40.020 ,4,0,0.,12.0,0.,12.0,0.,12.0,0.,12.0
1981-08-26 00:28:52.020 ,3,1,0.,12.0,0.,12.0,0.,12.0,0.,12.0
1981-08-26 00:29:04.020 ,3,1,0.,12.0,0.,12.0,0.,12.0,0.,12.0
1981-08-26 00:29:16.020 ,3,0,0.,12.0,0.,12.0,0.,12.0,0.,12.0
1981-08-26 00:29:28.020 ,3,0,0.,12.0,0.,12.0,0.,12.0,0.,12.0
1981-08-26 00:29:40.020 ,2,1,0.,12.0,0.,12.0,0.,12.0,0.,12.0
1981-08-26 00:29:52.020 ,2,1,0.,12.0,0.,12.0,0.,12.0,0.,12.0
1981-08-26 00:30:04.020 ,2,0,0.,12.0,0.,12.0,0.,12.0,0.,12.0
1981-08-26 00:30:16.020 ,2,0,0.,12.0,0.,12.0,0.,12.0,0.,12.0
1981-08-26 00:30:28.020 ,1,1,0.,12.0,0.,12.0,0.,12.0,0.,12.0
1981-08-26 00:30:40.020 ,1,1,0.,12.0,0.,12.0,0.,12.0,0.,12.0
1981-08-26 00:30:52.020 ,1,0,0.,12.0,0.,12.0,0.,12.0,0.,12.0
1981-08-26 00:31:04.020 ,1,0,0.,12.0,0.,12.0,0.,12.0,0.,12.0
1981-08-26 00:31:16.020 ,0,1,0.,12.0,0.,12.0,0.,12.0,0.,12.0
1981-08-26 00:31:28.020 ,0,1,0.,12.0,0.,12.0,0.,12.0,0.,12.0
1981-08-26 00:31:40.020 ,0,0,0.,12.0,0.,12.0,0.,12.0,0.,12.0
1981-08-26 00:31:52.020 ,0,0,0.,12.0,0.,12.0,0.,12.0,0.,12.0
1981-08-26 00:32:04.020 ,0,1,0.,12.0,0.,12.0,0.,12.0,0.,12.0
1981-08-26 00:32:16.020 ,0,1,0.,12.0,0.,12.0,0.,12.0,0.,12.0
1981-08-26 00:32:28.020 ,0,0,0.,12.0,0.,12.0,0.,12.0,0.,12.0
1981-08-26 00:32:40.020 ,0,0,0.,12.0,0.,12.0,0.,12.0,0.,12.0
1981-08-26 00:32:52.020 ,1,1,0.,12.0,0.,12.0,0.,12.0,0.,12.0
1981-08-26 00:33:04.020 ,1,1,0.,12.0,0.,12.0,0.,12.0,0.,12.0
1981-08-26 00:33:16.020 ,1,0,0.,12.0,0.,12.0,0.,12.0,0.,12.0
1981-08-26 00:33:28.020 ,1,0,0.,12.0,0.,12.0,0.,12.0,0.,12.0
1981-08-26 00:33:40.020 ,2,1,0.,12.0,0.,12.0,0.,12.0,0.,12.0
1981-08-26 00:33:52.020 ,2,1,0.,12.0,0.,12.0,0.,12.0,0.,12.0
1981-08-26 00:34:04.020 ,2,0,0.,12.0,0.,12.0,0.,12.0,0.,12.0
1981-08-26 00:34:16.020 ,2,0,0.,12.0,0.,12.0,0.,12.0,0.,12.0
1981-08-26 00:34:28.020 ,3,1,0.,12.0,0.,12.0,0.,12.0,0.,12.0
1981-08-26 00:34:40.020 ,3,1,0.,12.0,0.,12.0,0.,12.0,0.,12.0
1981-08-26 00:34:52.020 ,3,0,0.,12.0,0.,12.0,0.,12.0,0.,12.0
1981-08-26 00:35:04.020 ,3,0,0.,12.0,0.,12.0,0.,12.0,0.,12.0
1981-08-26 00:35:16.020 ,4,1,0.,12.0,0.,12.0,0.,12.0,0.,12.0
1981-08-26 00:35:28.020 ,4,1,0.,12.0,0.,12.0,0.,12.0,0.,12.0
1981-08-26 00:35:40.020 ,4,0,0.,12.0,0.,12.0,0.,12.0,0.,12.0
1981-08-26 00:35:52.020 ,4,0,0.,12.0,0.,12.0,0.,12.0,0.,12.0
1981-08-26 00:36:04.020 ,5,1,0.,12.0,0.,12.0,0.,12.0,0.,12.0
1981-08-26 00:36:16.020 ,5,1,0.,12.0,0.,12.0,0.,12.0,0.,12.0
1981-08-26 00:36:28.020 ,5,0,0.,12.0,0.,12.0,0.,12.0,0.,12.0
1981-08-26 00:36:40.020 ,5,0,0.,12.0,0.,12.0,0.,12.0,0.,12.0
1981-08-26 00:36:52.020 ,6,1,0.,12.0,0.,12.0,0.,12.0,0.,12.0
1981-08-26 00:37:04.020 ,6,1,0.,12.0,0.,12.0,0.,12.0,0.,12.0
1981-08-26 00:37:16.020 ,6,0,0.,12.0,0.,12.0,0.,12.0,0.,12.0
1981-08-26 00:37:28.020 ,6,0,0.,12.0,0.,12.0,0.,12.0,0.,12.0
1981-08-26 00:37:40.020 ,7,1,0.,12.0,0.,12.0,0.,12.0,0.,12.0
1981-08-26 00:37:52.020 ,7,1,0.,12.0,0.,12.0,0.,12.0,0.,12.0
1981-08-26 00:38:04.020 ,7,0,0.,12.0,0.,12.0,0.,12.0,0.,12.0
1981-08-26 00:38:16.020 ,7,0,0.,12.0,0.,12.0,0.,12.0,0.,12.0
1981-08-26 00:38:28.020 ,7,1,0.,12.0,0.,12.0,0.,12.0,0.,12.0
1981-08-26 00:38:40.020 ,7,1,0.,12.0,0.,12.0,0.,12.0,0.,12.0
1981-08-26 00:38:52.020 ,7,0,0.,12.0,0.,12.0,0.,12.0,0.,12.0
1981-08-26 00:39:04.020 ,7,0,0.,12.0,0.,12.0,0.,12.0,0.,12.0
1981-08-26 00:39:16.020 ,6,1,0.,12.0,0.,12.0,0.,12.0,0.,12.0
1981-08-26 00:39:28.020 ,6,1,0.,12.0,0.,12.0,0.,12.0,0.,12.0
1981-08-26 00:39:40.020 ,6,0,0.,12.0,0.,12.0,0.,12.0,0.,12.0
1981-08-26 00:39:52.020 ,6,0,0.,12.0,0.,12.0,0.,12.0,0.,12.0
1981-08-26 00:40:04.020 ,5,1,0.,12.0,0.,12.0,0.,12.0,0.,12.0
1981-08-26 00:40:16.020 ,5,1,0.,12.0,0.,12.0,0.,12.0,0.,12.0
1981-08-26 00:40:28.020 ,5,0,0.,12.0,0.,12.0,0.,12.0,0.,12.0
1981-08-26 00:40:40.020 ,5,0,0.,12.0,0.,12.0,0.,12.0,0.,12.0
1981-08-26 00:40:52.020 ,4,1,0.,12.0,0.,12.0,0.,12.0,0.,12.0
1981-08-26 00:41:04.020 ,4,1,0.,12.0,0.,12.0,0.,12.0,0.,12.0
1981-08-26 00:41:16.020 ,4,0,0.,12.0,0.,12.0,0.,12.0,0.,12.0
1981-08-26 00:41:28.020 ,4,0,0.,12.0,0.,12.0,0.,12.0,0.,12.0
1981-08-26 00:41:40.020 ,0,0,0.,12.0,0.,12.0,0.,12.0,0.,12.0
1981-08-26 00:41:52.020 ,0,0,0.,12.0,0.,12.0,0.,12.0,0.,12.0
1981-08-26 00:42:04.020 ,0,0,0.,12.0,0.,12.0,0.,12.0,0.,12.0
1981-08-26 00:42:16.020 ,0,0,0.,12.0,0.,12.0,0.,12.0,0.,12.0
1981-08-26 00:42:28.020 ,0,0,0.,12.0,0.,12.0,0.,12.0,0.,12.0
1981-08-26 00:42:40.020 ,0,0,0.,12.0,0.,12.0,0.,12.0,0.,12.0
1981-08-26 00:42:52.020 ,0,0,0.,12.0,0.,12.0,0.,12.0,0.,12.0
1981-08-26 00:43:04.020 ,0,0,0.,12.0,0.,12.0,0.,12.0,0.,12.0
1981-08-26 00:43:16.020 ,0,0,0.,12.0,0.,12.0,0.,12.0,0.,12.0
1981-08-26 00:43:28.020 ,0,0,0.,12.0,0.,12.0,0.,12.0,0.,12.0
1981-08-26 00:43:40.020 ,0,0,0.,12.0,0.,12.0,0.,12.0,0.,12.0
1981-08-26 00:43:52.020 ,0,0,0.,12.0,0.,12.0,0.,12.0,0.,12.0
1981-08-26 00:44:04.020 ,0,0,0.,12.0,0.,12.0,0.,12.0,0.,12.0
1981-08-26 00:44:16.020 ,0,0,0.,12.0,0.,12.0,0.,12.0,0.,12.0
1981-08-26 00:44:28.020 ,0,0,0.,12.0,0.,12.0,0.,12.0,0.,12.0
1981-08-26 00:44:40.020 ,0,0,0.,12.0,0.,12.0,0.,12.0,0.,12.0
1981-08-26 00:44:52.020 ,0,0,0.,12.0,0.,12.0,0.,12.0,0.,12.0
1981-08-26 00:45:04.020 ,0,0,0.,12.0,0.,12.0,0.,12.0,0.,12.0
1981-08-26 00:45:16.020 ,0,0,0.,12.0,0.,12.0,0.,12.0,0.,12.0
1981-08-26 00:45:28.020 ,0,0,0.,12.0,0.,12.0,0.,12.0,0.,12.0
1981-08-26 00:45:40.020 ,0,0,0.,12.0,0.,12.0,0.,12.0,0.,12.0
1981-08-26 00:45:52.020 ,0,0,0.,12.0,0.,12.0,0.,12.0,0.,12.0
1981-08-26 00:46:04.020 ,0,0,0.,12.0,0.,12.0,0.,12.0,0.,12.0
1981-08-26 00:46:16.020 ,0,0,0.,12.0,0.,12.0,0.,12.0,0.,12.0
1981-08-26 00:46:28.020 ,0,0,0.,12.0,0.,12.0,0.,12.0,0.,12.0
1981-08-26 00:46:40.020 ,0,0,0.,12.0,0.,12.0,0.,12.0,0.,12.0
1981-08-26 00:46:52.020 ,0,0,0.,12.0,0.,12.0,0.,12.0,0.,12.0
1981-08-26 00:47:04.020 ,0,0,0.,12.0,0.,12.0,0.,12.0,0.,12.0
1981-08-26 00:47:16.020 ,0,0,0.,12.0,0.,12.0,0.,12.0,0.,12.0
1981-08-26 00:47:28.020 ,0,0,0.,12.0,0.,12.0,0.,12.0,0.,12.0
1981-08-26 00:47:40.020 ,0,0,0.,12.0,0.,12.0,0.,12.0,0.,12.0
1981-08-26 00:47:52.020 ,0,0,0.,12.0,0.,12.0,0.,12.0,0.,12.0
1981-08-26 00:48:04.020 ,0,0,0.,12.0,0.,12.0,0.,12.0,0.,12.0
1981-08-26 00:48:16.020 ,0,0,0.,12.0,0.,12.0,0.,12.0,0.,12.0
1981-08-26 00:48:28.020 ,0,0,0.,12.0,0.,12.0,0.,12.0,0.,12.0
1981-08-26 00:48:40.020 ,0,0,0.,12.0,0.,12.0,0.,12.0,0.,12.0
1981-08-26 00:48:52.020 ,0,0,0.,12.0,0.,12.0,0.,12.0,0.,12.0
1981-08-26 00:49:04.020 ,0,0,0.,12.0,0.,12.0,0.,12.0,0.,12.0
1981-08-26 00:49:16.020 ,0,0,0.,12.0,0.,12.0,0.,12.0,0.,12.0
1981-08-26 00:49:28.020 ,0,0,0.,12.0,0.,12.0,0.,12.0,0.,12.0
1981-08-26 00:49:40.020 ,0,0,0.,12.0,0.,12.0,0.,12.0,0.,12.0
1981-08-26 00:49:52.020 ,0,0,0.,12.0,0.,12.0,0.,12.0,0.,12.0
1981-08-26 00:50:04.020 ,0,0,0.,12.0,0.,12.0,0.,12.0,0.,12.0
1981-08-26 00:50:16.020 ,0,0,0.,12.0,0.,12.0,0.,12.0,0.,12.0
1981-08-26 00:50:28.020 ,0,0,0.,12.0,0.,12.0,0.,12.0,0.,12.0
1981-08-26 00:50:40.020 ,0,0,0.,12.0,0.,12.0,0.,12.0,0.,12.0
1981-08-26 00:50:52.020 ,0,0,0.,12.0,0.,12.0,0.,12.0,0.,12.0
1981-08-26 00:51:04.020 ,0,0,0.,12.0,0.,12.0,0.,12.0,0.,12.0
1981-08-26 00:51:16.020 ,0,0,0.,12.0,0.,12.0,0.,12.0,0.,12.0
1981-08-26 00:51:28.020 ,0,0,0.,12.0,0.,12.0,0.,12.0,0.,12.0
1981-08-26 00:51:40.020 ,0,0,0.,12.0,0.,12.0,0.,12.0,0.,12.0
1981-08-26 00:51:52.020 ,0,0,0.,12.0,0.,12.0,0.,12.0,0.,12.0
1981-08-26 00:52:04.020 ,0,0,0.,12.0,0.,12.0,0.,12.0,0.,12.0
1981-08-26 00:52:16.020 ,0,0,0.,12.0,0.,12.0,0.,12.0,0.,12.0
1981-08-26 00:52:28.020 ,0,0,0.,12.0,0.,12.0,0.,12.0,0.,12.0
1981-08-26 00:52:40.020 ,0,0,0.,12.0,0.,12.0,0.,12.0,0.,12.0
1981-08-26 00:52:52.020 ,0,0,0.,12.0,0.,12.0,0.,12.0,0.,12.0
1981-08-26 00:53:04.020 ,0,0,0.,12.0,0.,12.0,0.,12.0,0.,12.0
1981-08-26 00:53:16.020 ,0,0,0.,12.0,0.,12.0,0.,12.0,0.,12.0
1981-08-26 00:53:28.020 ,0,0,0.,12.0,0.,12.0,0.,12.0,0.,12.0
1981-08-26 00:53:40.020 ,0,0,0.,12.0,0.,12.0,0.,12.0,0.,12.0
1981-08-26 00:53:52.020 ,0,0,0.,12.0,0.,12.0,0.,12.0,0.,12.0
1981-08-26 00:54:04.020 ,0,0,0.,12.0,0.,12.0,0.,12.0,0.,12.0
1981-08-26 00:54:16.020 ,0,0,0.,12.0,0.,12.0,0.,12.0,0.,12.0
1981-08-26 00:54:28.020 ,0,0,0.,12.0,0.,12.0,0.,12.0,0.,12.0
1981-08-26 00:54:40.020 ,0,0,0.,12.0,0.,12.0,0.,12.0,0.,12.0
1981-08-26 00:54:52.020 ,0,0,0.,12.0,0.,12.0,0.,12.0,0.,12.0
1981-08-26 00:55:04.020 ,0,0,0.,12.0,0.,12.0,0.,12.0,0.,12.0
1981-08-26 00:55:16.020 ,0,0,0.,12.0,0.,12.0,0.,12.0,0.,12.0
1981-08-26 00:55:28.020 ,0,0,0.,12.0,0.,12.0,0.,12.0,0.,12.0
1981-08-26 00:55:40.020 ,0,0,0.,12.0,0.,12.0,0.,12.0,0.,12.0
1981-08-26 00:55:52.020 ,0,0,0.,12.0,0.,12.0,0.,12.0,0.,12.0
1981-08-26 00:56:04.020 ,0,0,0.,12.0,0.,12.0,0.,12.0,0.,12.0
1981-08-26 00:56:16.020 ,0,0,0.,12.0,0.,12.0,0.,12.0,0.,12.0
1981-08-26 00:56:28.020 ,0,0,0.,12.0,0.,12.0,0.,12.0,0.,12.0
1981-08-26 00:56:40.020 ,0,0,0.,12.0,0.,12.0,0.,12.0,0.,12.0
1981-08-26 00:56:52.020 ,0,0,0.,12.0,0.,12.0,0.,12.0,0.,12.0
1981-08-26 00:57:04.020 ,0,0,0.,12.0,0.,12.0,0.,12.0,0.,12.0
1981-08-26 00:57:16.020 ,0,0,0.,12.0,0.,12.0,0.,12.0,0.,12.0
1981-08-26 00:57:28.020 ,0,0,0.,12.0,0.,12.0,0.,12.0,0.,12.0
1981-08-26 00:57:40.020 ,0,0,0.,12.0,0.,12.0,0.,12.0,0.,12.0
1981-08-26 00:57:52.020 ,0,0,0.,12.0,0.,12.0,0.,12.0,0.,12.0
1981-08-26 00:58:04.020 ,0,0,0.,12.0,0.,12.0,0.,12.0,0.,12.0
1981-08-26 00:58:16.020 ,0,0,0.,12.0,0.,12.0,0.,12.0,0.,12.0
1981-08-26 00:58:28.020 ,0,0,0.,12.0,0.,12.0,0.,12.0,0.,12.0
1981-08-26 00:58:40.020 ,0,0,0.,12.0,0.,12.0,0.,12.0,0.,12.0
1981-08-26 00:58:52.020 ,0,0,0.,12.0,0.,12.0,0.,12.0,0.,12.0
1981-08-26 00:59:04.020 ,0,0,0.,12.0,0.,12.0,0.,12.0,0.,12.0
1981-08-26 00:59:16.020 ,0,0,0.,12.0,0.,12.0,0.,12.0,0.,12.0
1981-08-26 00:59:28.020 ,0,0,0.,12.0,0.,12.0,0.,12.0,0.,12.0
1981-08-26 00:59:40.020 ,0,0,0.,12.0,0.,12.0,0.,12.0,0.,12.0
1981-08-26 00:59:52.020 ,0,0,0.,12.0,0.,12.0,0.,12.0,0.,12.0
1981-08-26 01:00:04.020 ,0,0,0.,12.0,0.,12.0,0.,12.0,0.,12.0
1981-08-26 01:00:16.020 ,0,0,0.,12.0,0.,12.0,0.,12.0,0.,12.0
